Cherokee Lake Weather Center

Moon Phase Calendar



Cherokee Lake Water Level
Online Cameras

 


      

Current Conditions in Morristown
5/22/2022 1:34:12 PM

79°F
Feels Like 79
Clouds
Humidity
63%
Pressure
30.15"
Wind
15 mph (WNW)
Dew Point
66°F
UV Index
10/10 (Very High)
Visibility
6 mi

Hourly Forecast

Date & Time Sun, May 22
1:00 PM
Sun, May 22
2:00 PM
Sun, May 22
3:00 PM
Sun, May 22
4:00 PM
Sun, May 22
5:00 PM
Sun, May 22
6:00 PM
Sun, May 22
7:00 PM
Sun, May 22
8:00 PM
Sun, May 22
9:00 PM
Sun, May 22
10:00 PM
Sun, May 22
11:00 PM
Mon, May 23
12:00 AM
Mon, May 23
1:00 AM
Mon, May 23
2:00 AM
Mon, May 23
3:00 AM
Mon, May 23
4:00 AM
Mon, May 23
5:00 AM
Mon, May 23
6:00 AM
Mon, May 23
7:00 AM
Mon, May 23
8:00 AM
Mon, May 23
9:00 AM
Mon, May 23
10:00 AM
Mon, May 23
11:00 AM
Mon, May 23
12:00 PM
Mon, May 23
1:00 PM
Mon, May 23
2:00 PM
Mon, May 23
3:00 PM
Mon, May 23
4:00 PM
Mon, May 23
5:00 PM
Mon, May 23
6:00 PM
Mon, May 23
7:00 PM
Mon, May 23
8:00 PM
Mon, May 23
9:00 PM
Mon, May 23
10:00 PM
Mon, May 23
11:00 PM
Tue, May 24
12:00 AM
Tue, May 24
1:00 AM
Tue, May 24
2:00 AM
Tue, May 24
3:00 AM
Tue, May 24
4:00 AM
Tue, May 24
5:00 AM
Tue, May 24
6:00 AM
Tue, May 24
7:00 AM
Tue, May 24
8:00 AM
Tue, May 24
9:00 AM
Tue, May 24
10:00 AM
Tue, May 24
11:00 AM
Tue, May 24
12:00 PM
Condition
Clouds

Clouds

Clouds

Clouds

Clouds

Rain

Rain

Rain

Rain

Rain

Rain

Rain

Rain

Rain

Rain

Rain

Rain

Rain

Rain

Rain

Rain

Rain

Rain

Rain

Rain

Rain

Rain

Rain

Rain

Rain

Rain

Rain

Rain

Rain

Clouds

Rain

Clouds

Clouds

Clouds

Clouds

Clouds

Clouds

Clouds

Clouds

Rain

Rain

Clouds

Rain
Temperature 79°F79°F79°F79°F79°F78°F71°F68°F66°F65°F65°F64°F64°F64°F63°F63°F63°F63°F62°F62°F62°F62°F63°F63°F63°F64°F64°F64°F64°F63°F63°F62°F62°F62°F62°F61°F60°F59°F59°F59°F59°F59°F60°F61°F61°F62°F64°F67°F
Feels Like 79°F79°F79°F79°F79°F78°F72°F68°F66°F65°F65°F65°F64°F64°F64°F64°F64°F64°F63°F63°F63°F63°F64°F64°F64°F64°F65°F65°F64°F64°F63°F63°F62°F63°F62°F61°F60°F59°F59°F59°F59°F60°F60°F61°F62°F62°F64°F68°F
Cloudiness 34%40%48%57%53%50%60%66%100%99%99%99%100%100%100%100%100%100%100%100%100%100%100%100%100%100%100%100%100%100%100%100%100%100%100%100%100%100%100%100%100%100%100%100%100%100%100%99%
Visibility 6 mi6 mi6 mi6 mi6 mi6 mi6 mi6 mi6 mi6 mi6 mi4 mi4 mi5 mi6 mi6 mi6 mi6 mi6 mi6 mi6 mi6 mi6 mi6 mi6 mi6 mi6 mi6 mi5 mi6 mi6 mi6 mi6 mi6 mi6 mi6 mi6 mi6 mi6 mi6 mi6 mi6 mi6 mi6 mi6 mi6 mi6 mi6 mi
Precipitation 24%40%73%84%84%89%100%100%87%89%92%96%100%100%92%98%100%100%100%100%100%100%100%100%100%100%100%100%100%100%100%100%88%80%72%67%67%59%10%5%5%6%25%27%50%42%38%41%
Humidity 61%63%62%62%60%65%83%91%94%95%96%98%99%99%99%99%99%99%99%99%99%98%98%98%97%97%97%96%98%98%99%99%99%99%98%98%98%98%98%98%98%97%97%96%97%97%94%88%
Dew Point 65°F66°F65°F65°F64°F65°F67°F65°F64°F64°F64°F64°F64°F64°F64°F64°F63°F63°F62°F62°F62°F62°F63°F63°F63°F63°F63°F63°F63°F63°F63°F62°F62°F62°F62°F61°F59°F59°F59°F59°F59°F59°F60°F60°F61°F61°F62°F64°F
Pressure 30.15"30.15"30.15"30.15"30.12"30.12"30.12"30.12"30.15"30.15"30.18"30.18"30.18"30.18"30.15"30.15"30.15"30.12"30.12"30.15"30.15"30.15"30.15"30.12"30.12"30.09"30.09"30.06"30.06"30.06"30.06"30.06"30.06"30.09"30.09"30.09"30.06"30.06"30.03"30.03"30.03"30.06"30.06"30.06"30.09"30.09"30.09"30.09"
Wind Speed 7.8 mph7.2 mph7.2 mph8.3 mph7.5 mph7.7 mph6.9 mph7.8 mph4.9 mph4 mph2.5 mph3.4 mph1.3 mph3.6 mph1.7 mph3.2 mph3.3 mph3.8 mph3.8 mph3.4 mph3.5 mph3.5 mph3.4 mph3.1 mph3.2 mph3.9 mph3.7 mph3.2 mph2.7 mph2.8 mph3 mph3 mph3 mph3.5 mph4.9 mph5.3 mph4.8 mph4.6 mph4.8 mph3.8 mph3.2 mph2.2 mph1.8 mph1.9 mph1.8 mph1.8 mph2.4 mph3.3 mph
Wind
Direction
246°
WSW
253°
WSW
289°
WNW
320°
NW
320°
NW
323°
NW
318°
NW
350°
N
359°
N
14°
NNE
327°
NNW
276°
W
312°
NW
52°
NE
84°
E
74°
ENE
95°
E
67°
ENE
67°
ENE
73°
ENE
71°
ENE
70°
ENE
72°
ENE
79°
E
75°
ENE
72°
ENE
76°
ENE
75°
ENE
70°
ENE
53°
NE
65°
ENE
70°
ENE
55°
NE
34°
NE
34°
NE
54°
NE
41°
NE
47°
NE
48°
NE
40°
NE
21°
NNE

N
13°
NNE
70°
ENE
105°
ESE
95°
E
63°
ENE
67°
ENE

Daily Forecast

Date High Low Precip. Humidity
Today
May 22

Rain
79 °F
62 °F
100%
61%
Monday
May 23

Rain
64 °F
62 °F
100%
97%
Tuesday
May 24

Rain
69 °F
59 °F
83%
87%
Wednesday
May 25

Rain
81 °F
59 °F
73%
56%
Thursday
May 26

Rain
68 °F
56 °F
100%
93%
Friday
May 27

Clear
74 °F
54 °F
5%
49%
Saturday
May 28

Clear
79 °F
54 °F
0%
51%
Sunday
May 29

Clouds
81 °F
58 °F
0%
49%
Monday
May 30

Clear
84 °F
60 °F
0%
50%
Tuesday
May 31

Clouds
85 °F
65 °F
1%
53%
Wednesday
Jun 1

Rain
83 °F
66 °F
92%
60%
Thursday
Jun 2

Rain
76 °F
62 °F
100%
82%
Friday
Jun 3

Clouds
80 °F
57 °F
9%
50%
Saturday
Jun 4

Clouds
84 °F
64 °F
4%
57%
Sunday
Jun 5

Clouds
85 °F
70 °F
11%
67%
Monday
Jun 6

Rain
93 °F
69 °F
32%
43%

Temperature 8-14 Day Outlook



Precipitation 8-14 Day Outlook




Quick Links
Cherokee Lake News
Cherokee Lake Photos
Cherokee Lake Videos




About Us
Contact Us
Site Map
Search Site
Advertise With Us
   
www.CherokeeLake.info
THE CHEROKEE LAKE WEBSITE

Copyright 2022, Lakes Online
Privacy    |    Legal